Terminal Aerodrome Forecast
Issued by NWS

Home | Current Version | Previous Version | Text Only | Print | Product List | Glossary On
Versions: 1 2 3 4 5 6 7 8 9 10 11 12 13 14 15 16 17 18 19 20 21 22 23 24 25 26 27 28 29 30 31 32 33 34 35 36 37 38 39 40 41 42 43 44 45 46 47 48 49 50
000
FTUS41 KCTP 011904 AAA
TAFJST
TAF AMD
KJST 011904Z 0119/0218 21011KT 3/4SM -SN BR OVC002
     FM012000 20009KT 1/2SM -FZRASN FG OVC003
     FM020300 26008KT 1 1/2SM -SHSN BR OVC003
     FM020600 29010G17KT 3SM -SHSN BR OVC006=

USA.gov is the U.S. government's official web portal to all federal, state and local government web resources and services.